EN

Hourly Weather Barwice

Today, 16 January, Saturday

Time Temperature Precipitation Wind Pressure Humidity
00:00 -6°C° 0.3 mm 3 mps 755 mmHg 93%
01:00 -6°C° 0 mm 3 mps 755 mmHg 93%
02:00 -6°C° 0.1 mm 3 mps 755 mmHg 92%
03:00 -7°C° 0.1 mm 3 mps 754 mmHg 92%
04:00 -7°C° 0.1 mm 3 mps 754 mmHg 91%
05:00 -7°C° 0 mm 3 mps 754 mmHg 91%
06:00 -8°C° 0 mm 3 mps 754 mmHg 91%
07:00 -8°C° 0 mm 3 mps 754 mmHg 92%
08:00 -7°C° 0 mm 3 mps 753 mmHg 89%
09:00 -7°C° 0 mm 4 mps 753 mmHg 87%
10:00 -5°C° 0 mm 4 mps 753 mmHg 84%
11:00 -6°C° 0 mm 5 mps 752 mmHg 85%
12:00 -5°C° 0 mm 5 mps 752 mmHg 85%
13:00 -5°C° 0 mm 6 mps 751 mmHg 86%
14:00 -5°C° 0.2 mm 6 mps 751 mmHg 88%
15:00 -5°C° 0.2 mm 5 mps 751 mmHg 90%
16:00 -5°C° 0.2 mm 5 mps 750 mmHg 92%
17:00 -5°C° 0.4 mm 5 mps 751 mmHg 93%
18:00 -4°C° 0.4 mm 4 mps 751 mmHg 93%
19:00 -4°C° 0.4 mm 4 mps 751 mmHg 94%
20:00 -5°C° 0.1 mm 3 mps 751 mmHg 93%
21:00 -7°C° 0.1 mm 3 mps 751 mmHg 93%
22:00 -8°C° 0.1 mm 2 mps 752 mmHg 93%
23:00 -9°C° 0 mm 2 mps 752 mmHg 92%

Tomorrow, 17 January, Sunday

Time Temperature Precipitation Wind Pressure Humidity
00:00 -9°C° 0 mm 2 mps 752 mmHg 92%
01:00 -9°C° 0 mm 1 mps 752 mmHg 91%
02:00 -12°C° 0 mm 2 mps 752 mmHg 92%
03:00 -12°C° 0 mm 2 mps 752 mmHg 93%
04:00 -13°C° 0 mm 2 mps 752 mmHg 94%
05:00 -11°C° 0 mm 1 mps 752 mmHg 94%
06:00 -12°C° 0 mm 1 mps 752 mmHg 94%
07:00 -13°C° 0 mm 1 mps 752 mmHg 93%
08:00 -12°C° 0 mm 1 mps 753 mmHg 91%
09:00 -12°C° 0 mm 1 mps 753 mmHg 88%
10:00 -11°C° 0 mm 1 mps 754 mmHg 85%
11:00 -10°C° 0 mm 1 mps 754 mmHg 83%
12:00 -12°C° 0 mm 2 mps 754 mmHg 80%
13:00 -10°C° 0 mm 2 mps 754 mmHg 77%
14:00 -10°C° 0 mm 2 mps 754 mmHg 81%
15:00 -10°C° 0 mm 1 mps 754 mmHg 84%
16:00 -11°C° 0 mm 1 mps 754 mmHg 87%
17:00 -11°C° 0 mm 1 mps 754 mmHg 87%
18:00 -12°C° 0 mm 1 mps 755 mmHg 87%
19:00 -14°C° 0 mm 2 mps 755 mmHg 88%
20:00 -15°C° 0 mm 2 mps 755 mmHg 87%
21:00 -15°C° 0 mm 2 mps 755 mmHg 87%
22:00 -15°C° 0 mm 2 mps 755 mmHg 87%
23:00 -15°C° 0 mm 2 mps 755 mmHg 86%

Day after tomorrow, 18 January, Monday

Time Temperature Precipitation Wind Pressure Humidity
00:00 -15°C° 0 mm 2 mps 755 mmHg 86%
01:00 -16°C° 0 mm 2 mps 755 mmHg 85%
02:00 -16°C° 0 mm 2 mps 754 mmHg 86%
03:00 -16°C° 0 mm 2 mps 754 mmHg 86%
04:00 -16°C° 0 mm 2 mps 754 mmHg 87%
05:00 -15°C° 0 mm 2 mps 754 mmHg 87%
06:00 -16°C° 0 mm 3 mps 754 mmHg 86%
07:00 -15°C° 0 mm 3 mps 754 mmHg 86%
08:00 -14°C° 0 mm 3 mps 753 mmHg 85%
09:00 -13°C° 0 mm 3 mps 753 mmHg 83%
10:00 -12°C° 0 mm 3 mps 753 mmHg 82%
11:00 -10°C° 0 mm 3 mps 753 mmHg 83%
12:00 -10°C° 0 mm 3 mps 752 mmHg 84%
13:00 -10°C° 0 mm 4 mps 752 mmHg 85%
14:00 -9°C° 0 mm 4 mps 752 mmHg 88%
15:00 -9°C° 0 mm 4 mps 751 mmHg 91%
16:00 -9°C° 0 mm 4 mps 751 mmHg 94%
17:00 -8°C° 0.3 mm 4 mps 751 mmHg 94%
18:00 -7°C° 0.3 mm 4 mps 750 mmHg 95%
19:00 -5°C° 0.3 mm 4 mps 750 mmHg 96%
20:00 -4°C° 0.5 mm 4 mps 749 mmHg 96%
21:00 -3°C° 0.5 mm 4 mps 749 mmHg 97%
22:00 -1°C° 0.5 mm 4 mps 749 mmHg 98%
23:00 -1°C° 0.2 mm 4 mps 748 mmHg 98%

19 January, Tuesday

Time Temperature Precipitation Wind Pressure Humidity
00:00 -1°C° 0.2 mm 4 mps 748 mmHg 98%
01:00 -1°C° 0.2 mm 4 mps 748 mmHg 98%
02:00 -1°C° 0 mm 4 mps 748 mmHg 98%
03:00 -1°C° 0 mm 4 mps 748 mmHg 98%
04:00 -1°C° 0 mm 4 mps 747 mmHg 98%
05:00 -1°C° 0 mm 4 mps 747 mmHg 98%
06:00 -1°C° 0 mm 4 mps 747 mmHg 98%
07:00 -1°C° 0 mm 4 mps 747 mmHg 98%
08:00 -1°C° 0 mm 4 mps 747 mmHg 98%
09:00 -1°C° 0 mm 4 mps 746 mmHg 98%
10:00 -1°C° 0 mm 4 mps 746 mmHg 98%
11:00 -1°C° 0 mm 4 mps 746 mmHg 98%
12:00 -1°C° 0 mm 4 mps 745 mmHg 98%
13:00 -1°C° 0 mm 4 mps 745 mmHg 98%
14:00 -1°C° 0.1 mm 5 mps 744 mmHg 97%
15:00 -2°C° 0.1 mm 5 mps 743 mmHg 97%
16:00 -2°C° 0.1 mm 5 mps 743 mmHg 97%
17:00 -1°C° 0.4 mm 5 mps 742 mmHg 97%
18:00 -1°C° 0.4 mm 5 mps 741 mmHg 97%
19:00 -1°C° 0.4 mm 5 mps 741 mmHg 98%
20:00 -1°C° 1 mm 5 mps 740 mmHg 98%
21:00 0°C° 1 mm 5 mps 740 mmHg 98%
22:00 +1°C° 1 mm 5 mps 739 mmHg 98%
23:00 +1°C° 0.7 mm 5 mps 739 mmHg 98%

20 January, Wednesday

Time Temperature Precipitation Wind Pressure Humidity
00:00 +1°C° 0.7 mm 6 mps 739 mmHg 98%
01:00 +1°C° 0.7 mm 6 mps 739 mmHg 98%
02:00 +1°C° 0.2 mm 6 mps 739 mmHg 97%
03:00 +1°C° 0.2 mm 6 mps 739 mmHg 97%
04:00 +1°C° 0.2 mm 6 mps 740 mmHg 96%
05:00 +1°C° 0 mm 5 mps 740 mmHg 96%
06:00 0°C° 0 mm 5 mps 740 mmHg 95%
07:00 0°C° 0 mm 5 mps 740 mmHg 94%
08:00 -1°C° 0.1 mm 6 mps 740 mmHg 94%
09:00 -1°C° 0.1 mm 6 mps 740 mmHg 94%
10:00 -1°C° 0.1 mm 6 mps 740 mmHg 94%
11:00 -1°C° 0 mm 6 mps 740 mmHg 93%
12:00 -1°C° 0 mm 6 mps 740 mmHg 92%
13:00 -1°C° 0 mm 6 mps 739 mmHg 92%
14:00 0°C° 0 mm 5 mps 739 mmHg 91%
15:00 0°C° 0 mm 5 mps 739 mmHg 90%
16:00 0°C° 0 mm 5 mps 739 mmHg 89%
17:00 0°C° 0 mm 5 mps 739 mmHg 89%
18:00 0°C° 0 mm 5 mps 739 mmHg 89%
19:00 0°C° 0 mm 5 mps 739 mmHg 89%
20:00 0°C° 0 mm 5 mps 739 mmHg 88%
21:00 0°C° 0 mm 5 mps 739 mmHg 87%
22:00 0°C° 0 mm 5 mps 739 mmHg 87%
23:00 0°C° 0 mm 5 mps 738 mmHg 85%

21 January, Thursday

Time Temperature Precipitation Wind Pressure Humidity
00:00 0°C° 0 mm 5 mps 738 mmHg 84%
01:00 0°C° 0 mm 5 mps 738 mmHg 82%
02:00 0°C° 0 mm 5 mps 737 mmHg 79%
03:00 0°C° 0 mm 5 mps 737 mmHg 77%
04:00 -1°C° 0 mm 6 mps 737 mmHg 74%
05:00 -1°C° 0 mm 6 mps 737 mmHg 74%
06:00 -1°C° 0 mm 6 mps 737 mmHg 75%
07:00 -1°C° 0 mm 6 mps 737 mmHg 75%
08:00 -1°C° 0 mm 6 mps 736 mmHg 77%
09:00 -1°C° 0 mm 6 mps 736 mmHg 78%
10:00 -1°C° 0 mm 6 mps 736 mmHg 79%
11:00 +1°C° 0 mm 6 mps 736 mmHg 81%
12:00 +1°C° 0 mm 6 mps 736 mmHg 82%
13:00 +2°C° 0 mm 6 mps 736 mmHg 84%
14:00 +1°C° 0 mm 6 mps 736 mmHg 85%
15:00 +1°C° 0 mm 5 mps 736 mmHg 85%
16:00 +1°C° 0 mm 5 mps 736 mmHg 86%
17:00 +1°C° 0 mm 6 mps 736 mmHg 84%
18:00 +1°C° 0 mm 6 mps 736 mmHg 83%
19:00 +1°C° 0 mm 6 mps 736 mmHg 82%
20:00 +1°C° 0 mm 6 mps 737 mmHg 82%
21:00 +1°C° 0 mm 6 mps 737 mmHg 82%
22:00 0°C° 0 mm 7 mps 737 mmHg 82%
23:00 -1°C° 0 mm 6 mps 737 mmHg 84%
Show more

We Need Your Consent

Meteoprog and our Service Providers may store and access personal data such as cookies, device identifiers or other similar technologies on your device and process such data to personalise content and ads, as well as provide social media features and to analyse the traffic.

  • Store and/or access information on your device

    Cookies, device identifiers or other information can be stored or accessed on your device for the purposes indicated above.

  • Personalised ads and content, ad and content measurement, audience insights, and products development

    Ads and content can be personalised based on a profile. More data can be added to better personalise ads and content. Ad and content performance can be measured. Insights about the audience who saw the ads and content can be derived. Such data can be used to develop or improve user’s experience, systems and software.

By clicking ‘I Agree’ you will allow the use of indicated cookies, device identifiers, web beacons or other similar technologies. Your settings can be changed in the browser on your device.

For certain purposes, legitimate interests may be relied on, rather than consent. You can read more about this in our Privacy and Cookie Policy.